Weather History for KNFL - July, 2012

Change the Weather History Date:

Tuesday, July 3, 2012

  Actual Average Record
Temperature  
Mean Temperature 77 °F -  
Max Temperature 93 °F 87 °F 102 °F (2001)
Min Temperature 61 °F 50 °F 40 °F (1966)
Cooling Degree Days 12    
Growing Degree Days 27 (Base 50)    
Moisture  
Dew Point 41 °F    
Average Humidity 28    
Maximum Humidity 52    
Minimum Humidity 12    
Precipitation  
Precipitation 0.00 in - - ()
Sea Level Pressure  
Sea Level Pressure 29.84 in    
Wind  
Wind Speed 6 mph (NNW)    
Max Wind Speed 12 mph    
Max Gust Speed 18 mph    
Visibility 10 miles    
Events      
Averages and records for this station are not official NWS values.
T = Trace of Precipitation, MM = Missing Value Source: NWS Daily Summary

Daily Weather History Graph

Daily Weather History Graph

Search for Another Location

Airport or City:

Trip Planner

Search our weather history database for the weather conditions in past years. The results will help you decide how hot, cold, wet, or windy it might be!

Date:

Astronomy

Jul. 03, 2012 Rise Set
Actual Time 5:32 AM PDT 8:25 PM PDT
Civil Twilight 5:00 AM PDT 8:57 PM PDT
Nautical Twilight 4:20 AM PDT 9:37 PM PDT
Astronomical Twilight 3:33 AM PDT 10:24 PM PDT
Moon 8:24 PM PDT (7/3) 5:31 AM PDT (7/3)
Length of Visible Light 15h 56m
Length of Day
14h 52m
Full, 100% of the Moon is Illuminated
Jul 3
Full
Jul 10
Last Quarter
Jul 18
New
Jul 26
First Quarter
Aug 1
Full

Hourly Weather History & Observations

Time (PDT) Temp. Dew Point Humidity Pressure Visibility Wind Dir Wind Speed Gust Speed Precip Events Conditions
12:56 AM 73.9 °F 44.1 °F 34% 29.83 in 10.0 mi NNW 5.8 mph - N/A   Clear
1:56 AM 72.0 °F 43.0 °F 35% 29.84 in 10.0 mi NNW 9.2 mph - N/A   Clear
2:56 AM 70.0 °F 41.0 °F 35% 29.85 in 10.0 mi NW 6.9 mph - N/A   Clear
3:56 AM 66.0 °F 42.1 °F 42% 29.86 in 10.0 mi NNW 5.8 mph - N/A   Clear
4:56 AM 64.9 °F 42.1 °F 43% 29.87 in 10.0 mi NNW 6.9 mph - N/A   Clear
5:56 AM 61.0 °F 43.0 °F 52% 29.89 in 10.0 mi Calm Calm - N/A   Clear
6:12 AM 62.6 °F 42.8 °F 48% 29.97 in 10.0 mi Calm Calm - N/A   Partly Cloudy
6:56 AM 69.1 °F 44.1 °F 40% 29.89 in 10.0 mi Calm Calm - N/A   Partly Cloudy
7:56 AM 72.0 °F 46.9 °F 41% 29.90 in 10.0 mi NW 6.9 mph - N/A   Clear
8:56 AM 77.0 °F 46.0 °F 33% 29.90 in 10.0 mi North 8.1 mph - N/A   Clear
9:56 AM 80.1 °F 45.0 °F 29% 29.90 in 10.0 mi North 9.2 mph - N/A   Clear
10:56 AM 82.0 °F 45.0 °F 27% 29.89 in 10.0 mi Variable 6.9 mph 16.1 mph N/A   Clear
11:56 AM 84.0 °F 43.0 °F 24% 29.88 in 10.0 mi North 11.5 mph 18.4 mph N/A   Partly Cloudy
12:56 PM 84.9 °F 41.0 °F 21% 29.87 in 10.0 mi Variable 6.9 mph - N/A   Partly Cloudy
1:56 PM 88.0 °F 39.9 °F 18% 29.84 in 10.0 mi Variable 6.9 mph - N/A   Partly Cloudy
2:56 PM 89.1 °F 39.9 °F 18% 29.82 in 10.0 mi West 4.6 mph - N/A   Partly Cloudy
3:56 PM 91.9 °F 39.0 °F 16% 29.81 in 10.0 mi Variable 4.6 mph - N/A   Partly Cloudy
4:56 PM 93.0 °F 37.0 °F 14% 29.78 in 10.0 mi Variable 6.9 mph - N/A   Partly Cloudy
5:56 PM 91.9 °F 35.1 °F 13% 29.77 in 10.0 mi NNE 4.6 mph - N/A   Partly Cloudy
6:56 PM 91.9 °F 33.1 °F 12% 29.76 in 10.0 mi North 8.1 mph - N/A   Partly Cloudy
7:56 PM 88.0 °F 37.0 °F 16% 29.77 in 10.0 mi North 8.1 mph - N/A   Scattered Clouds
8:56 PM 81.0 °F 36.0 °F 20% 29.78 in 10.0 mi NNW 8.1 mph - N/A   Scattered Clouds
9:56 PM 77.0 °F 36.0 °F 23% 29.79 in 10.0 mi NNW 9.2 mph - N/A   Clear
10:56 PM 77.0 °F 36.0 °F 23% 29.80 in 10.0 mi NW 9.2 mph - N/A   Clear
11:56 PM 73.9 °F 37.0 °F 26% 29.82 in 10.0 mi Variable 3.5 mph - N/A   Clear